Location: Dead Woman Crossing
(43.5369°N, 106.3228°W)
Time: 00:51:04
(UTC+00:00)

BEESAT 2 - Pass Details

Date: 27 June 2022
Orbit: 481 x 508 km, 64.9° (Epoch: 07 August)

Event Time Altitude Azimuth Distance (km) Brightness Sun altitude
Rises 04:19:36 0° 320° (NW) 2,625 ? -12.7°
Reaches altitude 10° 04:21:51 10° 313° (NW) 1,736 ? -13.0°
Maximum altitude 04:25:32 43° 242° (WSW) 725 ? -13.4°
Enters shadow 04:28:02 18° 177° (S) 1,288 ? -13.7°
